Lancaster, OH

2:06 PM EST on February 20, 2017 (GMT -0500)
Fairfield County

Weather History for KLHQ - June, 2013

Change the Weather History Date:

Monday, June 24, 2013

  Actual Average Record
Temperature  
Mean Temperature 74 °F -  
Max Temperature 86 °F 79 °F 93 °F (1964)
Min Temperature 64 °F 56 °F 37 °F (1972)
Cooling Degree Days 9    
Growing Degree Days 24 (Base 50)    
Moisture  
Dew Point 66 °F    
Average Humidity 73    
Maximum Humidity 93    
Minimum Humidity 55    
Precipitation  
Precipitation 0.01 in - - ()
Sea Level Pressure  
Sea Level Pressure 30.09 in    
Wind  
Wind Speed 3 mph (SW)    
Max Wind Speed 9 mph    
Max Gust Speed -    
Visibility 9 miles    
Events      
Averages and records for this station are not official NWS values.
T = Trace of Precipitation, MM = Missing Value Source: NWS Daily Summary

Daily Weather History Graph

Daily Weather History Graph

Search for Another Location

Airport or City:

Trip Planner

Search our weather history database for the weather conditions in past years. The results will help you decide how hot, cold, wet, or windy it might be!

Date:

Astronomy

Jun. 24, 2013 Rise Set
Actual Time 6:03 AM EDT 9:02 PM EDT
Civil Twilight 5:30 AM EDT 9:35 PM EDT
Nautical Twilight 4:49 AM EDT 10:16 PM EDT
Astronomical Twilight 4:01 AM EDT 11:04 PM EDT
Moon 10:04 PM EDT (6/24) 7:29 AM EDT (6/24)
Length of Visible Light 16h 04m
Length of Day
14h 59m
Full, 98% of the Moon is Illuminated
Jun 24
Full
Jun 30
Last Quarter
Jul 8
New
Jul 15
First Quarter
Jul 22
Full

Hourly Weather History & Observations

Time (EDT) Temp. Heat Index Dew Point Humidity Pressure Visibility Wind Dir Wind Speed Gust Speed Precip Events Conditions
12:53 AM 66.9 °F - 63.0 °F 87% 30.13 in 9.0 mi Calm Calm - N/A   Clear
1:53 AM 66.0 °F - 63.0 °F 90% 30.12 in 9.0 mi Calm Calm - N/A   Clear
2:53 AM 64.9 °F - 62.1 °F 90% 30.10 in 9.0 mi Calm Calm - N/A   Clear
3:53 AM 64.0 °F - 62.1 °F 93% 30.11 in 8.0 mi Calm Calm - N/A   Clear
4:53 AM 64.0 °F - 62.1 °F 93% 30.10 in 7.0 mi South 3.5 mph - N/A   Clear
5:53 AM 64.0 °F - 62.1 °F 93% 30.10 in 6.0 mi Calm Calm - N/A   Clear
6:53 AM 66.0 °F - 64.0 °F 93% 30.12 in 6.0 mi Calm Calm - N/A   Clear
7:53 AM 71.1 °F - 64.0 °F 78% 30.14 in 8.0 mi Calm Calm - N/A   Clear
8:53 AM 75.9 °F - 66.0 °F 71% 30.14 in 10.0 mi SSW 3.5 mph - N/A   Clear
9:53 AM 78.1 °F - 66.9 °F 68% 30.15 in 10.0 mi SW 5.8 mph - N/A   Clear
10:53 AM 80.1 °F 82.3 °F 66.9 °F 64% 30.14 in 10.0 mi SW 6.9 mph - N/A   Clear
11:53 AM 82.9 °F 85.8 °F 68.0 °F 60% 30.14 in 10.0 mi West 6.9 mph - N/A   Scattered Clouds
12:53 PM 84.0 °F 86.5 °F 66.9 °F 56% 30.13 in 10.0 mi West 6.9 mph - N/A   Partly Cloudy
1:53 PM 84.9 °F 87.6 °F 66.9 °F 55% 30.10 in 10.0 mi Variable 5.8 mph - N/A   Partly Cloudy
2:53 PM 82.9 °F 85.0 °F 66.0 °F 56% 30.07 in 10.0 mi SW 9.2 mph - N/A   Clear
3:53 PM 79.0 °F - 70.0 °F 74% 30.08 in 10.0 mi West 3.5 mph - 0.01 in   Scattered Clouds
4:53 PM 81.0 °F 83.8 °F 68.0 °F 65% 30.06 in 7.0 mi West 6.9 mph - N/A   Clear
5:53 PM 82.0 °F 84.5 °F 66.9 °F 60% 30.04 in 8.0 mi WSW 8.1 mph - N/A   Clear
6:53 PM 82.9 °F 85.8 °F 68.0 °F 60% 30.02 in 9.0 mi SSW 5.8 mph - N/A   Clear
7:53 PM 80.1 °F 82.3 °F 66.9 °F 64% 30.04 in 8.0 mi SW 4.6 mph - N/A   Clear
8:53 PM 78.1 °F - 66.0 °F 66% 30.05 in 9.0 mi SW 5.8 mph - N/A   Clear
9:53 PM 77.0 °F - 66.9 °F 71% 30.04 in 10.0 mi SSW 8.1 mph - N/A   Clear
10:53 PM 75.0 °F - 66.9 °F 76% 30.06 in 10.0 mi South 5.8 mph - N/A   Clear
11:53 PM 73.9 °F - 66.0 °F 76% 30.07 in 10.0 mi SSW 5.8 mph - N/A   Clear